[[{"header":{"parameterUnit":"m.s-1","parameterCategory":1,"la1":30.2991,"la2":30.254,"lo1":-89.0895,"lo2":-89.0444,"dy":0.0017,"dx":0.0017,"nx":28,"ny":28,"refTime":"2025-04-03T21:00:00:Z","depth":0,"parameterNumber":2,"parameterNumberName":"U-component_of_WINDS"},"data":[0,0,0,0,0,0,0,0,0,0,0,0,0,0,0,0,0,0,0,0,0,0,0,0,0,0,0,0,0,0,0,0,0,0,0,0,0,0,0,0,0,0,0,0,0,0,0,0,0,0,0,0,0,0,0,0,0,0,-5.5351,-5.5352,0,-5.5419,-5.5419,-5.542,-5.5378,-5.5376,-5.5374,-5.5372,-5.5439,-5.5443,-5.5446,0,0,0,0,0,0,0,0,0,0,0,0,0,-5.5185,-5.5188,-5.5351,-5.5352,-5.5353,-5.5419,-5.542,-5.542,-5.5378,-5.5376,-5.5374,-5.5371,-5.5438,-5.5442,-5.5446,0,0,0,0,0,0,0,0,0,0,0,0,0,-5.5255,-5.5189,-5.5351,-5.534,-5.534,-5.5418,-5.542,-5.5421,-5.5379,-5.5376,-5.5373,-5.537,-5.5436,-5.5442,-5.5447,-5.554,0,0,-5.5464,-5.5466,0,0,0,0,0,0,0,0,-5.5251,-5.5261,-5.5341,-5.5341,-5.5341,-5.5387,-5.5385,-5.5461,-5.538,-5.5364,-5.5372,-5.5369,-5.5424,-5.543,-5.5449,-5.5543,-5.5546,-5.5464,-5.5467,-5.547,-5.5471,0,0,0,0,0,0,0,-5.5247,-5.5258,-5.5378,-5.5342,-5.5342,-5.5331,-5.5338,-5.5399,-5.541,-5.5365,-5.5362,-5.5371,-5.5423,-5.5444,-5.5451,-5.5547,-5.5464,-5.5469,-5.5472,-5.5474,-5.5719,-5.5722,0,0,0,0,0,0,-5.5243,-5.5254,-5.5376,-5.538,-5.5288,-5.5337,-5.5344,-5.5375,-5.5409,-5.5411,-5.5373,-5.5369,-5.5436,-5.5444,-5.5453,-5.5562,-5.547,-5.5475,-5.5478,-5.5716,-5.572,-5.5723,0,0,0,0,0,0,-5.5239,-5.5254,-5.5373,-5.5317,-5.5331,-5.5343,-5.5378,-5.5378,-5.5399,-5.5415,-5.5417,-5.5393,-5.5434,-5.5445,-5.5518,-5.5564,-5.5477,-5.5482,-5.5712,-5.5717,-5.5721,-5.5782,0,0,0,0,0,0,-5.5235,-5.5253,-5.5288,-5.5318,-5.5334,-5.5438,-5.5381,-5.5381,-5.5408,-5.5403,-5.5434,-5.5436,-5.5433,-5.5511,-5.5524,-5.557,-5.5486,-5.5708,-5.5714,-5.572,-5.5776,-5.5788,-5.5799,0,0,0,0,0,-5.5229,-5.5303,-5.529,-5.5305,-5.5379,-5.5441,-5.545,-5.5445,-5.5412,-5.5448,-5.5459,-5.5435,-5.5558,-5.5518,-5.5533,-5.5581,-5.5705,-5.5712,-5.5719,-5.5771,-5.5786,-5.5799,0,0,0,0,0,0,-5.5277,-5.5306,-5.5293,-5.5378,-5.5408,-5.5434,-5.5478,-5.5462,-5.55,-5.5493,-5.5486,-5.5493,-5.5569,-5.5583,-5.5539,-5.5672,-5.5626,-5.5636,-5.566,-5.5674,-5.5686,-5.5679,-5.5491,0,0,0,0,0,-5.5298,-5.5347,-5.5369,-5.5442,-5.5458,-5.5466,-5.5492,-5.5487,-5.5516,-5.5528,-5.5544,-5.5573,-5.5618,-5.5648,-5.569,-5.5779,-5.5784,-5.582,-5.5831,-5.5841,-5.5849,-5.5896,-5.5911,-5.5747,-5.5747,-5.5747,0,0,-5.5341,-5.5363,-5.5393,-5.5453,-5.5474,-5.5524,-5.5476,-5.5531,-5.5567,-5.5536,-5.5606,-5.5619,-5.5651,-5.5733,-5.5769,-5.5746,-5.5896,-5.585,-5.5857,-5.586,-5.5905,-5.592,-5.5934,-5.5752,-5.5751,-5.5751,0,0,-5.5443,-5.5466,-5.5529,-5.5552,-5.5586,-5.5591,-5.5607,-5.5636,-5.5644,-5.5714,-5.5692,-5.5735,-5.5813,-5.5837,-5.5859,-5.5973,-5.5952,-5.5987,-5.6046,-5.6092,-5.6104,-5.6116,-5.6154,-5.6168,-5.5996,-5.5996,-5.5996,0,-5.5492,-5.5566,-5.5563,-5.5619,-5.5645,-5.5622,-5.5684,-5.5707,-5.5753,-5.5772,-5.5746,-5.5843,-5.5864,-5.5949,-5.5977,-5.5997,-5.6013,-5.5982,-5.6103,-5.6115,-5.6125,-5.6161,-5.6176,-5.6,-5.6,-5.5999,-5.5999,0,-5.5623,-5.5675,-5.5722,-5.5767,-5.5799,-5.5859,-5.5864,-5.5897,-5.5889,-5.5897,-5.5969,-5.5993,-5.6039,-5.606,-5.6053,-5.6145,-5.6129,-5.6104,-5.6056,-5.6144,-5.6178,-5.6193,-5.6005,-5.6004,-5.6003,-5.6002,0,0,-5.5754,-5.5799,-5.5816,-5.5836,-5.5873,-5.5913,-5.5972,-5.6018,-5.6046,-5.608,-5.6127,-5.6195,-5.6172,-5.6197,-5.6193,-5.6234,-5.632,-5.6203,-5.6204,-5.6222,-5.6421,-5.6437,-5.6454,-5.6309,-5.6311,-5.6313,-5.6417,0,-5.5857,-5.5959,-5.5959,-5.6053,-5.61,-5.608,-5.6131,-5.6159,-5.6169,-5.621,-5.6221,-5.6268,-5.6235,-5.625,-5.629,-5.6301,-5.6359,-5.6294,-5.6351,-5.6353,-5.634,-5.6472,-5.6489,-5.6586,-5.6431,-5.6433,-5.6435,0,-5.5989,-5.6028,-5.6127,-5.6157,-5.6177,-5.6223,-5.6265,-5.6306,-5.6337,-5.6342,-5.6371,-5.6361,-5.642,-5.6374,-5.6455,-5.641,-5.6434,-5.6444,-5.6447,-5.6449,-5.6396,-5.6474,-5.6617,-5.663,-5.6456,-5.6455,-5.6453,0,-5.6071,-5.6149,-5.6217,-5.6236,-5.6274,-5.6306,-5.6324,-5.6353,-5.6381,-5.6418,-5.6436,-5.648,-5.6503,-5.6538,-5.654,-5.6506,-5.662,-5.6575,-5.6624,-5.6623,-5.6645,-5.6643,-5.679,-5.6667,-5.6666,-5.6666,-5.6666,0,-5.6184,-5.6245,-5.6255,-5.6297,-5.6364,-5.6364,-5.6431,-5.6445,-5.6472,-5.6516,-5.6502,-5.6543,-5.6545,-5.6588,-5.659,-5.6655,-5.6667,-5.6671,-5.667,-5.667,-5.6669,-5.6682,-5.6674,-5.667,-5.6669,-5.6668,-5.6668,0,-5.6285,-5.6295,-5.6369,-5.64,-5.6409,-5.6457,-5.6483,-5.6523,-5.6532,-5.6588,-5.6601,-5.6616,-5.6665,-5.6672,-5.673,-5.6731,-5.6809,-5.6803,-5.6798,-5.6795,-5.6843,-5.6837,-5.7001,-5.7021,-5.6888,-5.6889,-5.689,0,-5.6355,-5.6401,-5.6438,-5.6466,-5.6485,-5.6532,-5.6561,-5.6564,-5.6594,-5.6635,-5.6669,-5.6718,-5.6756,-5.6836,-5.6851,-5.6895,-5.6888,-5.6943,-5.6894,-5.6893,-5.6885,-5.6881,-5.6885,-5.695,-5.6952,-5.6953,-5.6954,0,-5.6476,-5.6479,-5.6521,-5.6566,-5.6601,-5.6636,-5.6669,-5.6693,-5.67,-5.6735,-5.6785,-5.6815,-5.6875,-5.6922,-5.6966,-5.6984,-5.6969,-5.697,-5.6983,-5.6981,-5.6976,-5.6977,-5.6819,-5.6965,-5.6964,-5.6963,-5.6963,-5.6962,-5.6562,-5.6601,-5.6633,-5.6681,-5.6706,-5.6738,-5.6776,-5.6792,-5.6834,-5.6883,-5.6882,-5.6938,-5.6969,-5.7026,-5.7047,-5.709,-5.7072,-5.7092,-5.7096,-5.71,-5.7103,-5.6972,-5.7099,-5.7098,-5.7098,-5.7098,-5.7098,0,-5.668,-5.67,-5.6744,-5.679,-5.6828,-5.6814,-5.685,-5.6882,-5.6931,-5.6962,-5.7,-5.7059,-5.7105,-5.7125,-5.7171,-5.7201,-5.7196,-5.7213,-5.7209,-5.7212,-5.7118,-5.7101,-5.7216,-5.7216,-5.7216,-5.7216,-5.7216,-5.7216,-5.6745,-5.6811,-5.6818,-5.6897,-5.6917,-5.6971,-5.6993,-5.7021,-5.7046,-5.7111,-5.715,-5.7164,-5.719,-5.7238,-5.728,-5.7284,-5.73,-5.7319,-5.7321,-5.7232,-5.7219,-5.7208,-5.7191,-5.7324,-5.7324,-5.7411,-5.7412,-5.7413]},{"header":{"parameterUnit":"m.s-1","parameterCategory":1,"la1":30.2991,"la2":30.254,"lo1":-89.0895,"lo2":-89.0444,"dy":0.0017,"dx":0.0017,"nx":28,"ny":28,"refTime":"2025-04-03T21:00:00:Z","depth":0,"parameterNumber":3,"parameterNumberName":"V-component_of_WINDS"},"data":[0,0,0,0,0,0,0,0,0,0,0,0,0,0,0,0,0,0,0,0,0,0,0,0,0,0,0,0,0,0,0,0,0,0,0,0,0,0,0,0,0,0,0,0,0,0,0,0,0,0,0,0,0,0,0,0,0,0,2.8953,2.8954,0,2.9052,2.9054,2.9055,2.9091,2.9091,2.9091,2.909,2.9189,2.9192,2.9195,0,0,0,0,0,0,0,0,0,0,0,0,0,2.8793,2.8795,2.8952,2.8954,2.8955,2.9052,2.9054,2.9055,2.9091,2.9091,2.9091,2.909,2.9189,2.9192,2.9196,0,0,0,0,0,0,0,0,0,0,0,0,0,2.8874,2.8796,2.8952,2.8985,2.8989,2.9052,2.9054,2.9055,2.9091,2.9091,2.909,2.909,2.9187,2.9192,2.9196,2.9233,0,0,2.9209,2.9211,0,0,0,0,0,0,0,0,2.8869,2.888,2.8979,2.8983,2.8987,2.9059,2.9034,2.9115,2.9092,2.9052,2.909,2.909,2.9146,2.9154,2.9174,2.9238,2.9242,2.921,2.9213,2.9214,2.9216,0,0,0,0,0,0,0,2.8864,2.8876,2.8992,2.898,2.8985,2.8994,2.9005,2.9049,2.9101,2.9056,2.9059,2.907,2.9148,2.9169,2.9176,2.9243,2.921,2.9214,2.9216,2.9218,2.9346,2.9346,0,0,0,0,0,0,2.8853,2.8871,2.8989,2.8995,2.8926,2.8998,2.901,2.9036,2.91,2.911,2.907,2.9072,2.9162,2.9171,2.918,2.923,2.9214,2.9219,2.9221,2.9345,2.9346,2.9347,0,0,0,0,0,0,2.8849,2.8863,2.8985,2.8934,2.895,2.9001,2.903,2.9039,2.906,2.9112,2.9121,2.9082,2.9162,2.9174,2.922,2.9233,2.9221,2.9225,2.9344,2.9345,2.9346,2.9327,0,0,0,0,0,0,2.8845,2.8862,2.8876,2.8934,2.8953,2.9024,2.9031,2.9041,2.9068,2.907,2.9125,2.9134,2.9163,2.9214,2.9225,2.9239,2.9228,2.9343,2.9344,2.9346,2.9327,2.9328,2.9328,0,0,0,0,0,2.8839,2.8865,2.8877,2.8891,2.8972,2.9024,2.9035,2.9068,2.9068,2.9084,2.9118,2.9132,2.923,2.9218,2.9231,2.9247,2.9342,2.9344,2.9346,2.9327,2.9328,2.9328,0,0,0,0,0,0,2.8806,2.8873,2.8886,2.8933,2.8973,2.903,2.905,2.9068,2.9107,2.9108,2.9147,2.9159,2.9203,2.9229,2.9215,2.9288,2.9287,2.9292,2.9268,2.927,2.927,2.9263,2.9232,0,0,0,0,0,2.8804,2.8842,2.8898,2.8934,2.8953,2.8998,2.9022,2.9045,2.9088,2.9104,2.9141,2.9181,2.9222,2.9247,2.9286,2.9331,2.9345,2.9349,2.9349,2.9349,2.9353,2.9381,2.9384,2.9352,2.9352,2.9352,0,0,2.88,2.8842,2.8863,2.8928,2.8962,2.9,2.9012,2.9051,2.908,2.911,2.9157,2.9186,2.9233,2.928,2.9302,2.9303,2.9365,2.9352,2.9351,2.9355,2.9383,2.9386,2.9389,2.9353,2.9353,2.9353,0,0,2.8814,2.8849,2.8883,2.8918,2.8969,2.9,2.9008,2.9064,2.9085,2.9133,2.9157,2.9192,2.9259,2.9293,2.9319,2.9349,2.9364,2.936,2.9363,2.939,2.9393,2.9395,2.9408,2.9411,2.9363,2.9363,2.9363,0,2.8803,2.8862,2.8898,2.8938,2.8966,2.8997,2.9033,2.9064,2.9125,2.9144,2.9145,2.9233,2.9267,2.9323,2.9331,2.935,2.9362,2.9354,2.939,2.9393,2.9395,2.9408,2.9412,2.9363,2.9363,2.9363,2.9363,0,2.8846,2.8887,2.8909,2.897,2.9001,2.9038,2.9081,2.9108,2.9128,2.9159,2.9209,2.9251,2.9301,2.9316,2.9335,2.9376,2.9375,2.9382,2.9383,2.9397,2.9409,2.9414,2.9362,2.9362,2.9362,2.9362,0,0,2.884,2.8923,2.8931,2.896,2.9021,2.9053,2.9092,2.9143,2.9166,2.9207,2.9242,2.93,2.9309,2.9338,2.9362,2.9385,2.9409,2.939,2.9392,2.9393,2.9458,2.9453,2.9458,2.942,2.9421,2.9421,2.9455,0,2.8862,2.8935,2.8971,2.9027,2.9067,2.9098,2.9133,2.9174,2.9204,2.9241,2.9274,2.9315,2.9322,2.9341,2.9365,2.9401,2.9422,2.9399,2.9453,2.9454,2.9441,2.9464,2.9458,2.9487,2.9459,2.946,2.9461,0,2.8897,2.8942,2.9003,2.9062,2.908,2.911,2.9161,2.9197,2.9244,2.9265,2.93,2.9323,2.9367,2.9364,2.9425,2.9408,2.9432,2.9453,2.9455,2.9462,2.9458,2.9472,2.9497,2.9501,2.9468,2.9468,2.9467,0,2.8888,2.8963,2.9011,2.9034,2.9104,2.9125,2.9155,2.9202,2.9232,2.9276,2.9295,2.9343,2.9369,2.9406,2.9443,2.9437,2.9501,2.9501,2.9519,2.9518,2.9531,2.953,2.9561,2.9545,2.9545,2.9545,2.9545,0,2.891,2.8947,2.9008,2.9037,2.908,2.9121,2.9162,2.9194,2.9237,2.9273,2.9302,2.9335,2.9381,2.9421,2.9449,2.9496,2.9507,2.9525,2.9533,2.9523,2.9521,2.954,2.9539,2.9546,2.9546,2.9546,2.9545,0,2.8907,2.8949,2.9003,2.9066,2.9083,2.9111,2.9165,2.9195,2.9228,2.9273,2.9286,2.9337,2.9385,2.9425,2.9487,2.9507,2.9556,2.9564,2.9541,2.9545,2.9561,2.956,2.9606,2.9615,2.9592,2.9592,2.9592,0,2.8918,2.8947,2.9014,2.9042,2.9072,2.9114,2.9146,2.9188,2.9219,2.9277,2.93,2.9351,2.9394,2.9469,2.9511,2.956,2.957,2.9583,2.9577,2.9568,2.9572,2.957,2.9574,2.9583,2.9583,2.9583,2.9583,0,2.8934,2.8954,2.8998,2.905,2.9087,2.9129,2.9173,2.9193,2.9244,2.9277,2.9328,2.9361,2.9427,2.9477,2.953,2.9561,2.9581,2.9585,2.9592,2.9583,2.9569,2.9579,2.9543,2.9584,2.9584,2.9584,2.9583,2.9583,2.8939,2.8968,2.9021,2.9069,2.9107,2.9148,2.918,2.9218,2.9261,2.9319,2.9341,2.9393,2.9443,2.9518,2.9549,2.959,2.9593,2.9602,2.9605,2.9607,2.9607,2.9562,2.96,2.96,2.96,2.96,2.96,0,2.8958,2.8994,2.9039,2.91,2.9139,2.9156,2.9206,2.9237,2.9283,2.9328,2.9371,2.943,2.948,2.9527,2.958,2.9604,2.9614,2.9616,2.9615,2.9622,2.96,2.959,2.9607,2.9607,2.9607,2.9607,2.9607,2.9607,2.8972,2.9023,2.905,2.912,2.9156,2.9209,2.9236,2.9274,2.9311,2.9377,2.9419,2.945,2.9497,2.9553,2.96,2.9613,2.9631,2.9631,2.9646,2.9625,2.9623,2.9622,2.9613,2.9634,2.9634,2.9665,2.9665,2.9665]}]]